Location: Newark
(36.0797°N, 3.9744°E)
Time: 06:10:03
(UTC+00:00)

Vanguard 2 Rocket - Pass Details

Date: 14 December 2019
Orbit: 554 x 3326 km, 32.9° (Epoch: 18 January)

Event Time Altitude Azimuth Distance (km) Brightness Sun altitude
Rises 23:02:32 0° 273° (W) 4,278 - -74.9°
Reaches altitude 10° 23:07:56 10° 246° (WSW) 2,694 - -75.5°
Maximum altitude 23:10:10 12° 224° (SW) 2,317 - -75.7°
Drops below altitude 10° 23:12:08 10° 202° (SSW) 2,271 - -75.9°
Sets 23:15:44 0° 169° (SSE) 2,900 - -76.2°
